Location: *
(35.8942°N, 23.3025°E)
Time: 22:14:08
(UTC+00:00)

Cosmos 1980 - Pass Details

Date: 21 September 2021
Orbit: 840 x 846 km, 71.0° (Epoch: 22 October)

Event Time Altitude Azimuth Distance (km) Brightness Sun altitude
Exits shadow 02:40:07 34° 276° (W) 1,356 4.3 -19.6°
Maximum altitude 02:41:04 36° 298° (WNW) 1,301 4.3 -19.4°
Drops below altitude 10° 02:46:15 10° 4° (N) 2,463 6.3 -18.4°
Sets 02:48:54 0° 13° (NNE) 3,400 7.2 -17.9°
